FDX621 KCAK-KPIT

Flight info

Callsign FDX621
Flight time 0h 34m
Altitude 7000
Route LIVER
Aircraft C208/L-SDF/C

Departure

Time 2026-05-09 01:45
Airport Akron Canton Regional Airport (KCAK)

Arrival

Time 2026-05-09 02:19
Airport Pittsburgh International Airport (KPIT)
Time Latitude Longitude Altitude Speed Heading
2026-05-09 01:19 40.91718 -81.43640 1228 ft 0 kts 221°
2026-05-09 01:41 40.91715 -81.43643 1228 ft 3 kts 224°
2026-05-09 01:41 40.91708 -81.43690 1227 ft 8 kts 319°
2026-05-09 01:41 40.91758 -81.43654 1228 ft 10 kts 47°
2026-05-09 01:42 40.91813 -81.43580 1230 ft 12 kts 41°
2026-05-09 01:42 40.91889 -81.43524 1233 ft 13 kts 27°
2026-05-09 01:42 40.91949 -81.43485 1235 ft 6 kts
2026-05-09 01:42 40.91995 -81.43510 1235 ft 9 kts 315°
2026-05-09 01:43 40.91999 -81.43592 1233 ft 11 kts 211°
2026-05-09 01:43 40.91911 -81.43707 1229 ft 34 kts 228°
2026-05-09 01:43 40.91654 -81.44071 1222 ft 71 kts 227°
2026-05-09 01:43 40.91291 -81.44594 1291 ft 80 kts 223°
2026-05-09 01:44 40.90918 -81.45130 1424 ft 78 kts 230°
2026-05-09 01:44 40.90597 -81.45713 1541 ft 79 kts 233°
2026-05-09 01:44 40.90275 -81.46304 1669 ft 80 kts 234°
2026-05-09 01:44 40.89959 -81.46989 1770 ft 92 kts 250°
2026-05-09 01:45 40.90011 -81.47873 1784 ft 110 kts 288°
2026-05-09 01:45 40.90611 -81.48450 1903 ft 128 kts 355°
2026-05-09 01:45 40.91441 -81.48030 2235 ft 132 kts 28°
2026-05-09 01:45 40.92164 -81.47174 2440 ft 140 kts 36°
2026-05-09 01:46 40.92894 -81.46328 2700 ft 140 kts 34°
2026-05-09 01:46 40.93608 -81.45463 3013 ft 137 kts 38°
2026-05-09 01:46 40.94270 -81.44576 3305 ft 136 kts 37°
2026-05-09 01:46 40.94951 -81.43726 3578 ft 132 kts 32°
2026-05-09 01:47 40.95628 -81.42882 3828 ft 133 kts 38°
2026-05-09 01:47 40.96292 -81.42007 4040 ft 138 kts 39°
2026-05-09 01:47 40.96976 -81.41086 4254 ft 143 kts 38°
2026-05-09 01:47 40.97685 -81.40132 4473 ft 147 kts 39°
2026-05-09 01:48 40.98410 -81.39155 4679 ft 151 kts 39°
2026-05-09 01:48 40.99152 -81.38152 4895 ft 154 kts 39°
2026-05-09 01:48 40.99917 -81.37133 5102 ft 157 kts 39°
2026-05-09 01:48 41.00696 -81.36105 5313 ft 159 kts 39°
2026-05-09 01:49 41.01490 -81.35073 5525 ft 161 kts 39°
2026-05-09 01:49 41.02297 -81.34021 5742 ft 164 kts 35°
2026-05-09 01:49 41.03097 -81.32940 5959 ft 165 kts 39°
2026-05-09 01:49 41.03894 -81.31835 6168 ft 166 kts 38°
2026-05-09 01:50 41.04694 -81.30727 6372 ft 166 kts 39°
2026-05-09 01:50 41.05501 -81.29629 6565 ft 166 kts 39°
2026-05-09 01:50 41.06308 -81.28530 6767 ft 166 kts 38°
2026-05-09 01:50 41.07112 -81.27429 6967 ft 166 kts 38°
2026-05-09 01:51 41.07906 -81.26317 7160 ft 167 kts 41°
2026-05-09 01:51 41.08313 -81.24893 7352 ft 168 kts 97°
2026-05-09 01:51 41.08037 -81.23438 7557 ft 160 kts 124°
2026-05-09 01:51 41.07582 -81.22091 7766 ft 161 kts 123°
2026-05-09 01:52 41.07128 -81.20736 7974 ft 161 kts 124°
2026-05-09 01:52 41.06645 -81.19349 8053 ft 170 kts 123°
2026-05-09 01:52 41.06152 -81.17919 8218 ft 171 kts 123°
2026-05-09 01:52 41.05659 -81.16474 8379 ft 173 kts 123°
2026-05-09 01:53 41.05161 -81.15022 8538 ft 174 kts 123°
2026-05-09 01:53 41.04661 -81.13563 8697 ft 174 kts 123°
2026-05-09 01:53 41.04156 -81.12098 8855 ft 175 kts 122°
2026-05-09 01:53 41.03657 -81.10624 9013 ft 176 kts 122°
2026-05-09 01:54 41.03151 -81.09147 9171 ft 176 kts 122°
2026-05-09 01:54 41.02642 -81.07668 9330 ft 177 kts 122°
2026-05-09 01:54 41.02132 -81.06189 9492 ft 177 kts 122°
2026-05-09 01:54 41.01621 -81.04705 9657 ft 177 kts 122°
2026-05-09 01:55 41.01107 -81.03218 9815 ft 177 kts 122°
2026-05-09 01:55 41.00417 -81.01944 9952 ft 168 kts 143°
2026-05-09 01:55 40.99830 -81.00528 10027 ft 183 kts 118°
2026-05-09 01:55 40.99343 -80.98932 10033 ft 190 kts 121°
2026-05-09 01:56 40.98807 -80.97313 10040 ft 194 kts 121°
2026-05-09 01:56 40.98249 -80.95670 10040 ft 198 kts 121°
2026-05-09 01:56 40.97684 -80.93998 10040 ft 200 kts 121°
2026-05-09 01:56 40.97118 -80.92312 10042 ft 201 kts 121°
2026-05-09 01:57 40.96547 -80.90619 10046 ft 202 kts 122°
2026-05-09 01:57 40.95976 -80.88924 10049 ft 201 kts 123°
2026-05-09 01:57 40.95403 -80.87233 10051 ft 201 kts 123°
2026-05-09 01:57 40.94832 -80.85542 10052 ft 202 kts 122°
2026-05-09 01:58 40.94260 -80.83844 10050 ft 202 kts 122°
2026-05-09 01:58 40.93687 -80.82153 10049 ft 201 kts 123°
2026-05-09 01:58 40.93111 -80.80457 10050 ft 202 kts 123°
2026-05-09 01:58 40.92537 -80.78763 10050 ft 202 kts 123°
2026-05-09 01:59 40.91966 -80.77069 10051 ft 202 kts 122°
2026-05-09 01:59 40.91392 -80.75372 10057 ft 203 kts 123°
2026-05-09 01:59 40.90816 -80.73670 10058 ft 203 kts 123°
2026-05-09 01:59 40.90241 -80.71974 10057 ft 202 kts 123°
2026-05-09 02:00 40.89673 -80.70310 10055 ft 201 kts 124°
2026-05-09 02:00 40.89088 -80.68614 10054 ft 201 kts 123°
2026-05-09 02:00 40.88532 -80.66946 10051 ft 200 kts 122°
2026-05-09 02:00 40.87964 -80.65269 10047 ft 200 kts 123°
2026-05-09 02:01 40.87230 -80.63796 10042 ft 184 kts 150°
2026-05-09 02:01 40.86265 -80.62708 10045 ft 183 kts 150°
2026-05-09 02:01 40.85319 -80.61579 10052 ft 183 kts 149°
2026-05-09 02:01 40.84367 -80.60448 10057 ft 185 kts 149°
2026-05-09 02:02 40.83408 -80.59313 10056 ft 185 kts 149°
2026-05-09 02:02 40.82448 -80.58179 10057 ft 185 kts 150°
2026-05-09 02:02 40.81490 -80.57053 10057 ft 184 kts 150°
2026-05-09 02:02 40.80537 -80.55925 10056 ft 183 kts 149°
2026-05-09 02:03 40.79592 -80.54805 10056 ft 182 kts 150°
2026-05-09 02:03 40.78644 -80.53690 10046 ft 183 kts 150°
2026-05-09 02:03 40.77697 -80.52574 10055 ft 182 kts 150°
2026-05-09 02:03 40.76750 -80.51460 10055 ft 182 kts 150°
2026-05-09 02:04 40.75808 -80.50346 10055 ft 181 kts 150°
2026-05-09 02:04 40.74866 -80.49238 10056 ft 181 kts 150°
2026-05-09 02:04 40.73922 -80.48132 10054 ft 181 kts 150°
2026-05-09 02:04 40.72976 -80.47050 10047 ft 179 kts 150°
2026-05-09 02:05 40.72034 -80.45981 10053 ft 179 kts 150°
2026-05-09 02:05 40.71087 -80.44908 10052 ft 180 kts 150°
2026-05-09 02:05 40.70144 -80.43826 10051 ft 179 kts 150°
2026-05-09 02:05 40.69203 -80.42752 10053 ft 179 kts 150°
2026-05-09 02:06 40.68261 -80.41683 10051 ft 179 kts 150°
2026-05-09 02:06 40.67314 -80.40605 10047 ft 180 kts 150°
2026-05-09 02:06 40.66373 -80.39530 10051 ft 179 kts 150°
2026-05-09 02:07 40.64481 -80.37378 10049 ft 180 kts 150°
2026-05-09 02:07 40.63535 -80.36304 10051 ft 180 kts 150°
2026-05-09 02:07 40.62588 -80.35228 10050 ft 180 kts 150°
2026-05-09 02:07 40.61639 -80.34149 10008 ft 182 kts 150°
2026-05-09 02:08 40.60648 -80.33027 9769 ft 192 kts 149°
2026-05-09 02:08 40.59665 -80.31821 9499 ft 200 kts 136°
2026-05-09 02:08 40.59224 -80.30018 9244 ft 218 kts 98°
2026-05-09 02:08 40.59225 -80.28028 8983 ft 214 kts 95°
2026-05-09 02:09 40.59240 -80.26098 8715 ft 208 kts 94°
2026-05-09 02:09 40.59256 -80.24229 8445 ft 202 kts 95°
2026-05-09 02:09 40.59277 -80.22395 8183 ft 199 kts 94°
2026-05-09 02:09 40.59294 -80.20595 7910 ft 193 kts 94°
2026-05-09 02:10 40.59312 -80.18857 7653 ft 187 kts 95°
2026-05-09 02:10 40.59334 -80.17156 7396 ft 185 kts 94°
2026-05-09 02:10 40.59353 -80.15475 7128 ft 182 kts 94°
2026-05-09 02:10 40.59368 -80.13819 6869 ft 180 kts 94°
2026-05-09 02:11 40.59385 -80.12213 6625 ft 176 kts 94°
2026-05-09 02:11 40.59406 -80.10619 6371 ft 173 kts 94°
2026-05-09 02:11 40.59419 -80.09050 6099 ft 169 kts 100°
2026-05-09 02:11 40.58940 -80.07798 5826 ft 144 kts 158°
2026-05-09 02:12 40.58087 -80.07218 5582 ft 137 kts 167°
2026-05-09 02:12 40.57206 -80.06967 5323 ft 126 kts 186°
2026-05-09 02:12 40.56338 -80.06846 5070 ft 124 kts 185°
2026-05-09 02:12 40.55483 -80.06721 4820 ft 124 kts 185°
2026-05-09 02:13 40.54643 -80.06685 4554 ft 117 kts 196°
2026-05-09 02:13 40.53838 -80.06824 4296 ft 117 kts 197°
2026-05-09 02:13 40.53021 -80.06968 4045 ft 120 kts 197°
2026-05-09 02:13 40.52199 -80.07119 3788 ft 120 kts 197°
2026-05-09 02:14 40.51500 -80.07540 3523 ft 108 kts 242°
2026-05-09 02:14 40.51343 -80.08481 3282 ft 107 kts 248°
2026-05-09 02:14 40.50958 -80.09328 3055 ft 108 kts 242°
2026-05-09 02:14 40.50609 -80.10116 2984 ft 92 kts 245°
2026-05-09 02:15 40.50377 -80.10808 2969 ft 79 kts 251°
2026-05-09 02:15 40.50198 -80.11488 2842 ft 78 kts 253°
2026-05-09 02:15 40.50062 -80.12214 2676 ft 86 kts 259°
2026-05-09 02:15 40.49977 -80.13002 2523 ft 88 kts 263°
2026-05-09 02:16 40.49935 -80.13532 2465 ft 89 kts 264°
2026-05-09 02:16 40.49943 -80.14331 2404 ft 87 kts 272°
2026-05-09 02:16 40.49970 -80.15108 2326 ft 79 kts 269°
2026-05-09 02:16 40.49987 -80.15811 2223 ft 76 kts 268°
2026-05-09 02:17 40.49977 -80.16521 2089 ft 79 kts 267°
2026-05-09 02:17 40.49972 -80.17186 2000 ft 71 kts 266°
2026-05-09 02:17 40.49971 -80.17847 1889 ft 74 kts 270°
2026-05-09 02:17 40.49991 -80.18530 1831 ft 76 kts 270°
2026-05-09 02:18 40.49993 -80.19249 1776 ft 80 kts 269°
2026-05-09 02:18 40.50033 -80.19983 1711 ft 83 kts 276°
2026-05-09 02:18 40.50066 -80.20762 1612 ft 87 kts 274°
2026-05-09 02:18 40.50087 -80.21579 1487 ft 90 kts 274°
2026-05-09 02:19 40.50105 -80.22392 1382 ft 89 kts 273°
2026-05-09 02:19 40.50127 -80.23212 1230 ft 90 kts 274°
2026-05-09 02:19 40.50153 -80.24005 1151 ft 78 kts 271°
2026-05-09 02:19 40.50169 -80.24577 1152 ft 41 kts 272°
2026-05-09 02:20 40.50110 -80.24660 1152 ft 10 kts 161°
2026-05-09 02:20 40.50072 -80.24593 1153 ft 12 kts 112°
2026-05-09 02:20 40.50050 -80.24472 1153 ft 15 kts 113°
2026-05-09 02:20 40.49979 -80.24391 1154 ft 15 kts 83°
2026-05-09 02:21 40.49981 -80.24241 1154 ft 18 kts 91°
2026-05-09 02:21 40.49978 -80.24072 1154 ft 19 kts 90°
2026-05-09 02:21 40.49973 -80.23921 1153 ft 11 kts 96°
2026-05-09 02:21 40.49927 -80.23824 1154 ft 12 kts 109°
2026-05-09 02:22 40.49924 -80.23684 1154 ft 18 kts 93°
2026-05-09 02:22 40.49926 -80.23522 1154 ft 16 kts 73°
2026-05-09 02:22 40.49958 -80.23368 1153 ft 16 kts 67°
2026-05-09 02:22 40.49964 -80.23209 1154 ft 19 kts 92°
2026-05-09 02:23 40.49958 -80.23033 1154 ft 20 kts 99°
2026-05-09 02:23 40.49892 -80.22869 1154 ft 21 kts 118°
2026-05-09 02:23 40.49821 -80.22698 1154 ft 22 kts 118°
2026-05-09 02:23 40.49749 -80.22526 1154 ft 22 kts 119°
2026-05-09 02:24 40.49679 -80.22376 1153 ft 16 kts 127°
2026-05-09 02:24 40.49598 -80.22260 1153 ft 20 kts 137°
2026-05-09 02:24 40.49513 -80.22135 1153 ft 16 kts 109°
2026-05-09 02:24 40.49477 -80.22019 1154 ft 12 kts 113°
2026-05-09 02:25 40.49447 -80.21900 1154 ft 11 kts 93°
2026-05-09 02:25 40.49505 -80.21819 1154 ft 15 kts 44°
2026-05-09 02:25 40.49585 -80.21708 1154 ft 14 kts 46°
2026-05-09 02:25 40.49645 -80.21628 1154 ft 15 kts 47°
2026-05-09 02:26 40.49706 -80.21552 1154 ft 8 kts 18°
2026-05-09 02:26 40.49739 -80.21566 1154 ft 0 kts 314°